This is the latest recevied weather packets stored in our database for station/object DH1FR-13. If no packets are shown the sender has not sent any weather packets the latest 10 day(s).
| Time | Temp. | Humidity | Pressure | Rain* | Wind** | Luminosity | Snow |
|---|---|---|---|---|---|---|---|
| 1787773200 | 16.67° C | 92% | 1020.6 hPa | 0.25 mm | 0 m/s | - | - |
| 1787772601 | 16.67° C | 91% | 1020.6 hPa | 0.25 mm | 0 m/s | - | - |
| 1787772000 | 17.22° C | 91% | 1020.4 hPa | 0.25 mm | 0 m/s | - | - |
| 1787771400 | 17.22° C | 90% | 1020.3 hPa | 0.25 mm | 0 m/s | - | - |
| 1787770801 | 17.22° C | 90% | 1020.5 hPa | 0.25 mm | 0 m/s | - | - |
| 1787770201 | 17.78° C | 89% | 1020.3 hPa | 0.25 mm | 0 m/s | - | - |
| 1787769601 | 18.33° C | 87% | 1020.1 hPa | 0.25 mm | 0 m/s | - | - |
| 1787769000 | 18.33° C | 86% | 1020.2 hPa | 0.25 mm | 0 m/s | - | - |
| 1787768401 | 18.89° C | 85% | 1020.1 hPa | 0.25 mm | 0 m/s | - | - |
| 1787767800 | 19.44° C | 83% | 1020.1 hPa | 0.25 mm | 0 m/s | - | - |
| 1787767201 | 20° C | 82% | 1020.1 hPa | 0.25 mm | 0 m/s | - | - |
| 1787766601 | 20° C | 81% | 1019.9 hPa | 0.25 mm | 0 m/s | - | - |
| 1787766001 | 20.56° C | 81% | 1019.9 hPa | 0.25 mm | 0 m/s | - | - |
| 1787765402 | 21.11° C | 79% | 1019.8 hPa | 0.25 mm | 0 m/s | - | - |
| 1787764800 | 21.67° C | 77% | 1019.9 hPa | 0.25 mm | 0 m/s | - | - |
| 1787764201 | 21.67° C | 76% | 1020 hPa | 0.25 mm | 0 m/s | - | - |
| 1787763600 | 21.67° C | 77% | 1020.2 hPa | 0.25 mm | 0 m/s | - | - |
| 1787763001 | 22.22° C | 75% | 1020.3 hPa | 0.25 mm | 0 m/s | - | - |
| 1787762401 | 22.22° C | 76% | 1020.1 hPa | 0.25 mm | 0 m/s | - | - |
| 1787761801 | 22.22° C | 74% | 1020 hPa | 0.25 mm | 0 m/s | - | - |
| 1787761201 | 22.22° C | 73% | 1019.9 hPa | 0.25 mm | 0 m/s | - | - |
| 1787760600 | 21.67° C | 74% | 1020.2 hPa | 0.25 mm | 0 m/s | - | - |
| 1787760001 | 22.22° C | 74% | 1020.2 hPa | 0.25 mm | 0 m/s | - | - |
| 1787759401 | 22.22° C | 74% | 1020 hPa | 0.25 mm | 0 m/s | - | - |
| 1787758800 | 22.22° C | 73% | 1020.2 hPa | 0.25 mm | 0 m/s | - | - |
* Rain latest hour (hover to see other rain measurements)
** Current wind speed in m/s (hover to see current wind gust speed)